[[{"header":{"parameterUnit":"m.s-1","parameterCategory":1,"la1":30.2991,"la2":30.254,"lo1":-89.0895,"lo2":-89.0444,"dy":0.0017,"dx":0.0017,"nx":28,"ny":28,"refTime":"2024-05-26T03:00:00:Z","depth":0,"parameterNumber":2,"parameterNumberName":"U-component_of_WINDS"},"data":[0,0,0,0,0,0,0,0,0,0,0,0,0,0,0,0,0,0,0,0,0,0,0,0,0,0,0,0,0,0,0,0,0,0,0,0,0,0,0,0,0,0,0,0,0,0,0,0,0,0,0,0,0,0,0,0,0,0,2.4175,2.4176,0,2.4221,2.4222,2.4222,2.4194,2.4193,2.4191,2.419,2.4235,2.4237,2.424,0,0,0,0,0,0,0,0,0,0,0,0,0,2.406,2.4063,2.4175,2.4176,2.4177,2.4221,2.4222,2.4222,2.4194,2.4193,2.4191,2.4189,2.4234,2.4237,2.424,0,0,0,0,0,0,0,0,0,0,0,0,0,2.4109,2.4063,2.4175,2.4168,2.4168,2.4221,2.4222,2.4222,2.4195,2.4193,2.4191,2.4189,2.4233,2.4237,2.424,2.4303,0,0,2.4252,2.4253,0,0,0,0,0,0,0,0,2.4106,2.4113,2.4168,2.4169,2.4168,2.42,2.4198,2.4249,2.4195,2.4184,2.419,2.4188,2.4225,2.4229,2.4242,2.4305,2.4307,2.4252,2.4254,2.4256,2.4257,0,0,0,0,0,0,0,2.4103,2.4111,2.4193,2.4169,2.4169,2.4161,2.4166,2.4207,2.4215,2.4185,2.4183,2.4189,2.4224,2.4238,2.4243,2.4308,2.4252,2.4255,2.4257,2.4259,2.4422,2.4424,0,0,0,0,0,0,2.41,2.4108,2.4192,2.4195,2.4132,2.4165,2.417,2.4192,2.4215,2.4216,2.4191,2.4188,2.4233,2.4239,2.4244,2.4317,2.4256,2.4259,2.4261,2.4419,2.4422,2.4424,0,0,0,0,0,0,2.4098,2.4108,2.419,2.4151,2.4161,2.4169,2.4194,2.4194,2.4208,2.4219,2.422,2.4204,2.4232,2.4239,2.4288,2.4318,2.4261,2.4264,2.4417,2.442,2.4423,2.4464,0,0,0,0,0,0,2.4095,2.4107,2.4132,2.4152,2.4163,2.4234,2.4195,2.4196,2.4214,2.4211,2.4231,2.4233,2.4231,2.4283,2.4292,2.4322,2.4267,2.4414,2.4418,2.4422,2.446,2.4469,2.4476,0,0,0,0,0,2.4091,2.4142,2.4133,2.4144,2.4194,2.4236,2.4242,2.4239,2.4217,2.4241,2.4248,2.4232,2.4314,2.4288,2.4298,2.433,2.4412,2.4417,2.4422,2.4457,2.4467,2.4475,0,0,0,0,0,0,2.4125,2.4144,2.4135,2.4194,2.4214,2.4231,2.4262,2.4251,2.4276,2.4272,2.4266,2.4271,2.4322,2.4331,2.4302,2.439,2.4359,2.4366,2.4383,2.4392,2.44,2.4396,2.427,0,0,0,0,0,2.414,2.4173,2.4188,2.4238,2.4249,2.4254,2.4272,2.4268,2.4287,2.4295,2.4306,2.4325,2.4354,2.4374,2.4402,2.4462,2.4465,2.4489,2.4496,2.4502,2.4508,2.4538,2.4548,2.444,2.444,2.444,0,0,2.417,2.4184,2.4206,2.4246,2.426,2.4293,2.4261,2.4298,2.4322,2.4301,2.4347,2.4356,2.4376,2.443,2.4455,2.4439,2.4539,2.4509,2.4513,2.4516,2.4544,2.4554,2.4564,2.4443,2.4443,2.4442,0,0,2.4241,2.4257,2.43,2.4315,2.4337,2.434,2.435,2.4369,2.4374,2.4421,2.4405,2.4433,2.4485,2.45,2.4514,2.459,2.4576,2.4599,2.4639,2.4668,2.4677,2.4684,2.471,2.4719,2.4605,2.4605,2.4606,0,2.4276,2.4326,2.4323,2.4361,2.4378,2.4361,2.4403,2.4418,2.4448,2.446,2.4442,2.4506,2.4519,2.4575,2.4593,2.4606,2.4616,2.4596,2.4676,2.4684,2.469,2.4714,2.4724,2.4608,2.4608,2.4607,2.4607,0,2.4366,2.4401,2.4433,2.4463,2.4484,2.4524,2.4525,2.4547,2.4541,2.4545,2.4592,2.4606,2.4636,2.465,2.4644,2.4705,2.4694,2.4677,2.4645,2.4703,2.4726,2.4735,2.4612,2.4611,2.461,2.4609,0,0,2.4461,2.4487,2.4499,2.4511,2.4535,2.4561,2.46,2.4629,2.4646,2.4668,2.4699,2.4742,2.4726,2.4742,2.4738,2.4764,2.4821,2.4743,2.4744,2.4756,2.4886,2.4898,2.4909,2.4812,2.4814,2.4815,2.4884,0,2.4532,2.46,2.4598,2.466,2.4691,2.4675,2.4708,2.4725,2.473,2.4756,2.4761,2.4791,2.4768,2.4778,2.4803,2.4809,2.4847,2.4804,2.4839,2.4841,2.4833,2.4921,2.4934,2.4997,2.4893,2.4894,2.4895,0,2.4625,2.4649,2.4715,2.4731,2.4744,2.4775,2.48,2.4826,2.4845,2.4846,2.4864,2.4855,2.4893,2.4861,2.4912,2.4883,2.4897,2.4902,2.4904,2.4906,2.487,2.4923,2.5018,2.5027,2.4909,2.4908,2.4907,0,2.4684,2.4733,2.4779,2.479,2.4812,2.4833,2.4842,2.4859,2.4876,2.4899,2.4909,2.4936,2.495,2.497,2.4969,2.4946,2.5019,2.4988,2.502,2.502,2.5035,2.5034,2.5132,2.5047,2.5047,2.5047,2.5047,0,2.4763,2.4804,2.4805,2.4833,2.4877,2.4874,2.4917,2.4925,2.4939,2.4967,2.4955,2.4981,2.4978,2.5004,2.5003,2.5044,2.5051,2.5052,2.5051,2.5052,2.5052,2.506,2.5055,2.505,2.5049,2.5049,2.5048,0,2.4837,2.484,2.4888,2.4904,2.4909,2.4941,2.4954,2.4979,2.4983,2.5018,2.5026,2.5031,2.5061,2.5062,2.5096,2.5095,2.5144,2.5139,2.5138,2.5137,2.5168,2.5164,2.5273,2.5286,2.5195,2.5196,2.5197,0,2.4886,2.4917,2.4936,2.4954,2.4965,2.4994,2.5012,2.5009,2.5028,2.505,2.5072,2.5101,2.5124,2.5172,2.5178,2.5204,2.5198,2.5234,2.5202,2.5201,2.5196,2.5194,2.5196,2.524,2.5241,2.5242,2.5243,0,2.4973,2.4973,2.4999,2.5025,2.5046,2.5067,2.5086,2.5101,2.51,2.5121,2.5152,2.5169,2.5204,2.5232,2.5257,2.5265,2.5253,2.5253,2.5262,2.5262,2.526,2.526,2.5154,2.525,2.525,2.5249,2.5249,2.5248,2.5035,2.506,2.5078,2.5106,2.512,2.5138,2.5162,2.5169,2.5194,2.5222,2.5219,2.5252,2.5268,2.53,2.5311,2.5336,2.5324,2.5336,2.5339,2.5342,2.5344,2.5257,2.5341,2.5341,2.5341,2.5341,2.534,0,2.5119,2.5129,2.5156,2.5182,2.5205,2.5193,2.5213,2.5232,2.5261,2.5278,2.53,2.5334,2.5361,2.5369,2.5395,2.5413,2.5408,2.542,2.5417,2.5419,2.5355,2.5345,2.5423,2.5423,2.5423,2.5423,2.5423,2.5423,2.5165,2.5207,2.5209,2.5257,2.5267,2.53,2.5312,2.5328,2.534,2.5379,2.5401,2.5407,2.5419,2.5445,2.5469,2.5471,2.548,2.5493,2.5492,2.5432,2.5424,2.5416,2.5406,2.5496,2.5496,2.5554,2.5554,2.5555]},{"header":{"parameterUnit":"m.s-1","parameterCategory":1,"la1":30.2991,"la2":30.254,"lo1":-89.0895,"lo2":-89.0444,"dy":0.0017,"dx":0.0017,"nx":28,"ny":28,"refTime":"2024-05-26T03:00:00:Z","depth":0,"parameterNumber":3,"parameterNumberName":"V-component_of_WINDS"},"data":[0,0,0,0,0,0,0,0,0,0,0,0,0,0,0,0,0,0,0,0,0,0,0,0,0,0,0,0,0,0,0,0,0,0,0,0,0,0,0,0,0,0,0,0,0,0,0,0,0,0,0,0,0,0,0,0,0,0,5.4661,5.4662,0,5.4762,5.4763,5.4764,5.474,5.4738,5.4736,5.4734,5.4831,5.4835,5.4839,0,0,0,0,0,0,0,0,0,0,0,0,0,5.4439,5.4443,5.466,5.4662,5.4663,5.4762,5.4763,5.4764,5.474,5.4738,5.4735,5.4733,5.4829,5.4834,5.484,0,0,0,0,0,0,0,0,0,0,0,0,0,5.4537,5.4445,5.466,5.4663,5.4664,5.4761,5.4763,5.4765,5.474,5.4738,5.4735,5.4732,5.4828,5.4834,5.484,5.4939,0,0,5.4861,5.4863,0,0,0,0,0,0,0,0,5.4531,5.4545,5.4661,5.4663,5.4665,5.4735,5.472,5.4823,5.4741,5.4711,5.4734,5.4731,5.4801,5.4809,5.4835,5.4944,5.4948,5.4861,5.4865,5.4868,5.487,0,0,0,0,0,0,0,5.4525,5.4541,5.47,5.4663,5.4665,5.4657,5.4667,5.474,5.4771,5.4714,5.4712,5.4725,5.4801,5.4828,5.4837,5.4949,5.4861,5.4867,5.4871,5.4873,5.5143,5.5146,0,0,0,0,0,0,5.4518,5.4535,5.4697,5.4703,5.459,5.4663,5.4675,5.4715,5.477,5.4776,5.4727,5.4723,5.4818,5.4829,5.484,5.4959,5.4868,5.4874,5.4878,5.5139,5.5143,5.5147,0,0,0,0,0,0,5.4513,5.4532,5.4693,5.4619,5.4639,5.467,5.4715,5.4719,5.4746,5.478,5.4785,5.475,5.4817,5.4831,5.4915,5.4962,5.4877,5.4883,5.5136,5.5141,5.5145,5.5197,0,0,0,0,0,0,5.4507,5.4531,5.457,5.462,5.4643,5.4769,5.4718,5.4723,5.4758,5.4754,5.4803,5.4808,5.4815,5.4905,5.4921,5.4969,5.4888,5.5132,5.5138,5.5144,5.5191,5.5203,5.5213,0,0,0,0,0,5.4499,5.4579,5.4573,5.4592,5.4693,5.4771,5.4784,5.4793,5.4762,5.4801,5.4823,5.4806,5.4954,5.4914,5.4932,5.4982,5.5129,5.5136,5.5143,5.5186,5.52,5.5213,0,0,0,0,0,0,5.4532,5.4586,5.4579,5.4679,5.4721,5.4767,5.4816,5.4808,5.4858,5.4852,5.4859,5.487,5.4955,5.4977,5.4932,5.508,5.5036,5.5048,5.5063,5.5077,5.5088,5.508,5.4894,0,0,0,0,0,5.4551,5.4612,5.4655,5.4739,5.4761,5.4785,5.4819,5.4823,5.4866,5.4883,5.4911,5.4951,5.5007,5.5043,5.5096,5.5194,5.5203,5.5237,5.5248,5.5257,5.5266,5.5319,5.5334,5.5171,5.5171,5.517,0,0,5.4591,5.4628,5.4666,5.4747,5.478,5.4841,5.48,5.4866,5.4911,5.4892,5.4974,5.4996,5.5041,5.5133,5.5174,5.5153,5.5314,5.5266,5.5273,5.5278,5.5328,5.5343,5.5357,5.5176,5.5175,5.5174,0,0,5.4694,5.4729,5.4803,5.4837,5.4889,5.4904,5.4922,5.497,5.4984,5.5067,5.5054,5.5106,5.5201,5.5234,5.5263,5.5379,5.5365,5.5396,5.5452,5.5504,5.5517,5.5528,5.5569,5.5583,5.5405,5.5405,5.5405,0,5.4737,5.4831,5.4841,5.4909,5.4944,5.4932,5.5005,5.5037,5.5102,5.5125,5.5102,5.5221,5.5251,5.535,5.5378,5.5402,5.5421,5.539,5.5514,5.5526,5.5537,5.5575,5.5591,5.5408,5.5408,5.5408,5.5407,0,5.4879,5.4944,5.4997,5.5063,5.5104,5.5174,5.5193,5.5232,5.5232,5.5249,5.5332,5.5368,5.5428,5.5451,5.545,5.555,5.5535,5.5513,5.5469,5.5555,5.5592,5.5607,5.5413,5.5412,5.5411,5.541,0,0,5.5007,5.5078,5.5097,5.5126,5.5182,5.5231,5.53,5.5361,5.5394,5.5439,5.5495,5.5577,5.5557,5.559,5.5592,5.5637,5.5726,5.5609,5.561,5.5629,5.5836,5.5852,5.587,5.5717,5.572,5.5722,5.5832,0,5.5115,5.5239,5.525,5.536,5.5419,5.5408,5.5467,5.5507,5.5525,5.5576,5.5594,5.5652,5.5621,5.5641,5.5685,5.5706,5.5767,5.5698,5.5768,5.577,5.5757,5.5889,5.5906,5.6008,5.5846,5.5849,5.5851,0,5.5258,5.531,5.5427,5.5474,5.5499,5.5553,5.5609,5.5658,5.5702,5.5711,5.5749,5.5745,5.5813,5.5768,5.5861,5.5813,5.5842,5.5857,5.5861,5.5867,5.5816,5.5898,5.6041,5.6056,5.5873,5.5871,5.587,0,5.5338,5.5437,5.552,5.5545,5.5603,5.564,5.5665,5.5707,5.5742,5.579,5.5813,5.5867,5.5897,5.5938,5.5949,5.5914,5.6041,5.5996,5.6049,5.6049,5.6076,5.6075,5.6225,5.6096,5.6096,5.6095,5.6095,0,5.5458,5.553,5.5557,5.5608,5.5687,5.5698,5.5775,5.5797,5.5834,5.5887,5.588,5.5929,5.5941,5.5992,5.6,5.6075,5.6088,5.6097,5.6098,5.6097,5.6096,5.6116,5.6109,5.6099,5.6098,5.6098,5.6097,0,5.5562,5.5583,5.5672,5.572,5.5733,5.5789,5.5829,5.5876,5.5893,5.596,5.5977,5.6002,5.6062,5.6077,5.6148,5.6153,5.6242,5.6236,5.6228,5.6228,5.628,5.6275,5.6449,5.6472,5.6327,5.6329,5.633,0,5.5637,5.5692,5.5746,5.5782,5.581,5.5868,5.5905,5.5917,5.5955,5.6009,5.6049,5.6109,5.6157,5.6252,5.6276,5.6329,5.6325,5.6382,5.6333,5.633,5.6325,5.6322,5.6327,5.6391,5.6393,5.6394,5.6395,0,5.5767,5.5775,5.583,5.5888,5.5933,5.5979,5.6022,5.6052,5.6069,5.6112,5.6175,5.6212,5.6285,5.6343,5.6397,5.642,5.641,5.6411,5.6426,5.6426,5.6418,5.6423,5.6253,5.6406,5.6405,5.6404,5.6404,5.6403,5.5858,5.5907,5.5953,5.6013,5.6048,5.6089,5.6136,5.616,5.6213,5.6275,5.6278,5.6345,5.6386,5.6458,5.6484,5.6536,5.6518,5.654,5.6545,5.655,5.6555,5.6411,5.6545,5.6545,5.6545,5.6544,5.6544,0,5.5988,5.6017,5.6073,5.6136,5.6183,5.6172,5.622,5.6259,5.632,5.636,5.6408,5.6479,5.6535,5.6563,5.6619,5.6654,5.6651,5.6668,5.6666,5.6671,5.6568,5.6549,5.667,5.667,5.667,5.667,5.667,5.667,5.6061,5.6143,5.6156,5.6254,5.6281,5.635,5.6378,5.6415,5.6447,5.6527,5.6575,5.6594,5.6629,5.6687,5.6737,5.6744,5.6764,5.6784,5.6788,5.6691,5.6678,5.6666,5.6649,5.6788,5.6789,5.6887,5.6888,5.6889]}]]